Pensacola NAS, FL

4:14 PM CDT on May 25, 2018 (GMT -0500)
Pensacola Naval Air Station

Weather History for KNPA - December, 2013

Change the Weather History Date:

Tuesday, December 31, 2013

  Actual Average Record
Temperature  
Mean Temperature 48 °F -  
Max Temperature 52 °F 58 °F 71 °F (1996)
Min Temperature 44 °F 39 °F 23 °F (2000)
Degree Days  
Heating Degree Days 17    
Moisture  
Dew Point 42 °F    
Average Humidity 83    
Maximum Humidity 90    
Minimum Humidity 73    
Precipitation  
Precipitation 0.00 in - - ()
Sea Level Pressure  
Sea Level Pressure 30.33 in    
Wind  
Wind Speed 8 mph (North)    
Max Wind Speed 12 mph    
Max Gust Speed -    
Visibility 10 miles    
Events Rain    
Averages and records for this station are not official NWS values.
T = Trace of Precipitation, MM = Missing Value Source: NWS Daily Summary

Daily Weather History Graph

Daily Weather History Graph

Search for Another Location

Airport or City:

Astronomy

Dec. 31, 2013 Rise Set
Actual Time 6:45 AM CST 4:59 PM CST
Civil Twilight 6:19 AM CST 5:25 PM CST
Nautical Twilight 5:49 AM CST 5:55 PM CST
Astronomical Twilight 5:20 AM CST 6:24 PM CST
Moon 5:41 AM CST (12/31) 4:31 PM CST (12/31)
Length of Visible Light 11h 06m
Length of Day
10h 13m
Waning Crescent, 1% of the Moon is Illuminated
Dec 31
Waning Crescent
Jan 1
New
Jan 7
First Quarter
Jan 15
Full
Jan 23
Last Quarter

Hourly Weather History & Observations

Time (CST) Temp. Windchill Dew Point Humidity Pressure Visibility Wind Dir Wind Speed Gust Speed Precip Events Conditions
12:56 AM 52.0 °F - 46.9 °F 83% 30.29 in 10.0 mi NNW 8.1 mph - N/A   Mostly Cloudy
1:56 AM 51.1 °F - 46.9 °F 86% 30.29 in 10.0 mi NNW 6.9 mph - N/A   Mostly Cloudy
2:56 AM 50.0 °F - 46.9 °F 89% 30.27 in 10.0 mi North 8.1 mph - N/A   Scattered Clouds
3:56 AM 50.0 °F - 46.0 °F 86% 30.29 in 10.0 mi North 8.1 mph - N/A   Partly Cloudy
4:39 AM 48.9 °F - 46.0 °F 90% 30.29 in 10.0 mi NNW 9.2 mph - N/A   Scattered Clouds
4:47 AM 48.9 °F - 46.0 °F 90% 30.29 in 10.0 mi North 6.9 mph - N/A   Mostly Cloudy
4:56 AM 48.9 °F - 46.0 °F 90% 30.30 in 10.0 mi NNW 9.2 mph - N/A   Mostly Cloudy
5:46 AM 48.0 °F - 44.1 °F 86% 30.32 in 10.0 mi North 10.4 mph - N/A   Scattered Clouds
5:56 AM 48.0 °F - 44.1 °F 86% 30.32 in 10.0 mi North 10.4 mph - N/A   Overcast
6:56 AM 46.9 °F - 42.1 °F 83% 30.33 in 10.0 mi North 10.4 mph - N/A   Overcast
7:56 AM 46.0 °F 42.5 °F 41.0 °F 83% 30.37 in 10.0 mi North 6.9 mph - N/A   Overcast
8:56 AM 45.0 °F 39.7 °F 39.9 °F 82% 30.39 in 10.0 mi North 10.4 mph - N/A   Overcast
9:56 AM 46.0 °F 41.9 °F 39.0 °F 76% 30.41 in 10.0 mi North 8.1 mph - N/A   Overcast
10:56 AM 46.0 °F 40.6 °F 37.9 °F 73% 30.39 in 10.0 mi North 11.5 mph - N/A   Overcast
11:56 AM 46.9 °F - 39.0 °F 74% 30.34 in 10.0 mi North 10.4 mph - N/A   Overcast
12:56 PM 46.0 °F 41.9 °F 39.0 °F 76% 30.34 in 10.0 mi North 8.1 mph - N/A   Overcast
1:56 PM 46.0 °F 41.0 °F 39.0 °F 76% 30.33 in 10.0 mi North 10.4 mph - N/A   Overcast
2:56 PM 46.0 °F 41.0 °F 39.0 °F 76% 30.33 in 10.0 mi North 10.4 mph - 0.00 in Rain Light Rain
3:10 PM 45.0 °F 39.3 °F 39.0 °F 80% 30.32 in 10.0 mi NNE 11.5 mph - 0.00 in   Overcast
3:56 PM 45.0 °F 41.2 °F 39.0 °F 80% 30.34 in 10.0 mi NNE 6.9 mph - 0.00 in   Overcast
4:56 PM 44.1 °F 40.1 °F 39.0 °F 82% 30.35 in 10.0 mi North 6.9 mph - 0.00 in Rain Light Rain
5:56 PM 44.1 °F 38.6 °F 39.9 °F 85% 30.34 in 10.0 mi North 10.4 mph - 0.00 in   Overcast
6:56 PM 45.0 °F 41.2 °F 41.0 °F 86% 30.35 in 10.0 mi NNE 6.9 mph - N/A   Overcast
7:56 PM 45.0 °F 40.6 °F 39.9 °F 82% 30.35 in 10.0 mi NNE 8.1 mph - 0.00 in Rain Light Rain
8:56 PM 45.0 °F 42.6 °F 41.0 °F 86% 30.37 in 10.0 mi NE 4.6 mph - 0.00 in   Scattered Clouds
9:56 PM 45.0 °F 43.5 °F 41.0 °F 86% 30.37 in 10.0 mi NE 3.5 mph - N/A   Mostly Cloudy
10:56 PM 46.0 °F 43.9 °F 41.0 °F 83% 30.35 in 10.0 mi NNE 4.6 mph - N/A   Scattered Clouds
11:56 PM 46.0 °F 43.1 °F 41.0 °F 83% 30.33 in 10.0 mi NE 5.8 mph - N/A   Overcast